| time (UTC) | temp F | wind direction | speed MPH | gust MPH | rain 1hr in | rain 24hr in | rain mn in | humidity % | barometer mb |
| 20260504174206 | 71 | 315 | 3.0 | 8.0 | 0.00 | 0.00 | 0.00 | 49 | 1012.7 |
| 20260504173215 | 72 | 354 | 1.0 | 2.0 | 0.00 | 0.00 | 0.00 | 47 | 1012.6 |
| 20260504172214 | 73 | 355 | 0.0 | 1.0 | 0.00 | 0.00 | 0.00 | 47 | 1012.5 |
| 20260504170211 | 73 | 355 | 1.0 | 2.0 | 0.00 | 0.00 | 0.00 | 45 | 1012.6 |
| 20260504150216 | 77 | 209 | 2.0 | 4.0 | 0.00 | 0.00 | 0.00 | 38 | 1012.8 |
| 20260504140221 | 78 | 219 | 2.0 | 8.0 | 0.00 | 0.00 | 0.00 | 37 | 1013.1 |
| 20260504130217 | 78 | 289 | 3.0 | 8.0 | 0.00 | 0.00 | 0.00 | 37 | 1013.5 |
| 20260504120215 | 78 | 224 | 4.0 | 10.0 | 0.00 | 0.00 | 0.00 | 36 | 1013.7 |
| 20260504110206 | 75 | 273 | 1.0 | 3.0 | 0.00 | 0.00 | 0.00 | 39 | 1014.1 |
| 20260504100210 | 75 | 292 | 3.0 | 6.0 | 0.00 | 0.00 | 0.00 | 39 | 1014.7 |
| 20260504081215 | 71 | 257 | 6.0 | 10.0 | 0.00 | 0.00 | 0.00 | 42 | 1014.7 |
| 20260504080208 | 71 | 279 | 4.0 | 8.0 | 0.00 | 0.00 | 0.00 | 43 | 1014.7 |
| 20260504070209 | 67 | 202 | 3.0 | 4.0 | 0.00 | 0.00 | 0.00 | 46 | 1014.4 |
| 20260504045213 | 59 | 0.0 | 0.0 | 0.00 | 0.00 | 0.00 | 53 | 1013.7 | |
| 20260504044211 | 60 | 197 | 1.0 | 4.0 | 0.00 | 0.00 | 0.00 | 53 | 1013.7 |
| 20260504043210 | 60 | 300 | 3.0 | 8.0 | 0.00 | 0.00 | 0.00 | 52 | 1013.9 |
| 20260504042213 | 60 | 259 | 3.0 | 7.0 | 0.00 | 0.00 | 0.00 | 51 | 1013.9 |
| 20260504041206 | 60 | 250 | 5.0 | 8.0 | 0.00 | 0.00 | 0.00 | 52 | 1013.9 |
| 20260504040209 | 60 | 259 | 5.0 | 9.0 | 0.00 | 0.00 | 0.00 | 52 | 1013.8 |
| 20260504035212 | 60 | 256 | 5.0 | 9.0 | 0.00 | 0.00 | 0.00 | 52 | 1013.9 |
| 20260504034216 | 60 | 245 | 3.0 | 9.0 | 0.00 | 0.00 | 0.00 | 51 | 1013.9 |
| 20260504032212 | 60 | 258 | 5.0 | 9.0 | 0.00 | 0.00 | 0.00 | 50 | 1013.8 |
| 20260504031206 | 61 | 238 | 4.0 | 10.0 | 0.00 | 0.00 | 0.00 | 50 | 1013.8 |
| 20260504030209 | 61 | 235 | 4.0 | 10.0 | 0.00 | 0.00 | 0.00 | 50 | 1013.7 |
| 20260504025212 | 61 | 256 | 4.0 | 8.0 | 0.00 | 0.00 | 0.00 | 49 | 1013.7 |
| 20260504024215 | 61 | 247 | 4.0 | 8.0 | 0.00 | 0.00 | 0.00 | 49 | 1013.8 |
| 20260504023208 | 61 | 240 | 4.0 | 8.0 | 0.00 | 0.00 | 0.00 | 49 | 1013.6 |
| 20260504022214 | 61 | 241 | 4.0 | 8.0 | 0.00 | 0.00 | 0.00 | 48 | 1013.5 |
| 20260504021216 | 62 | 263 | 5.0 | 9.0 | 0.00 | 0.00 | 0.00 | 48 | 1013.5 |
| 20260504020208 | 62 | 242 | 5.0 | 11.0 | 0.00 | 0.00 | 0.00 | 48 | 1013.6 |
| 20260504015211 | 62 | 256 | 4.0 | 10.0 | 0.00 | 0.00 | 0.00 | 47 | 1013.5 |
| 20260504014214 | 63 | 257 | 6.0 | 13.0 | 0.00 | 0.00 | 0.00 | 46 | 1013.5 |
| 20260504013208 | 63 | 259 | 7.0 | 22.0 | 0.00 | 0.00 | 0.00 | 46 | 1013.4 |
| 20260504012201 | 64 | 209 | 7.0 | 18.0 | 0.00 | 0.00 | 0.00 | 45 | 1013.1 |
| 20260504005209 | 64 | 236 | 4.0 | 10.0 | 0.00 | 0.00 | 0.00 | 44 | 1013.2 |
| 20260504004212 | 64 | 240 | 7.0 | 17.0 | 0.00 | 0.00 | 0.00 | 44 | 1013.1 |
| 20260504003215 | 64 | 253 | 5.0 | 10.0 | 0.00 | 0.00 | 0.00 | 44 | 1013.0 |
| 20260504002208 | 64 | 257 | 7.0 | 16.0 | 0.00 | 0.00 | 0.00 | 44 | 1012.9 |
| 20260504001211 | 64 | 233 | 4.0 | 13.0 | 0.00 | 0.00 | 0.00 | 44 | 1012.4 |
| 20260504000219 | 64 | 206 | 6.0 | 14.0 | 0.00 | 0.00 | 0.00 | 44 | 1012.3 |
| 20260503234213 | 65 | 205 | 7.0 | 17.0 | 0.00 | 0.00 | 0.00 | 43 | 1012.5 |
| 20260503233217 | 65 | 204 | 7.0 | 14.0 | 0.00 | 0.00 | 0.00 | 43 | 1012.3 |
| 20260503232207 | 65 | 201 | 6.0 | 18.0 | 0.00 | 0.00 | 0.00 | 42 | 1012.4 |
| 20260503231211 | 66 | 209 | 7.0 | 16.0 | 0.00 | 0.00 | 0.00 | 42 | 1012.3 |
| 20260503230214 | 66 | 203 | 9.0 | 23.0 | 0.00 | 0.00 | 0.00 | 42 | 1012.4 |
| 20260503225207 | 66 | 201 | 7.0 | 19.0 | 0.00 | 0.00 | 0.00 | 42 | 1012.3 |
| 20260503224210 | 66 | 186 | 7.0 | 16.0 | 0.00 | 0.00 | 0.00 | 42 | 1012.6 |
| 20260503223213 | 66 | 189 | 7.0 | 14.0 | 0.00 | 0.00 | 0.00 | 42 | 1012.6 |
| 20260503221212 | 66 | 184 | 7.0 | 16.0 | 0.00 | 0.00 | 0.00 | 43 | 1012.6 |
| 20260503220213 | 66 | 184 | 6.0 | 21.0 | 0.00 | 0.00 | 0.00 | 42 | 1012.8 |
| 20260503215212 | 66 | 186 | 5.0 | 18.0 | 0.00 | 0.00 | 0.00 | 42 | 1012.8 |
| 20260503214210 | 66 | 192 | 6.0 | 13.0 | 0.00 | 0.00 | 0.00 | 42 | 1012.8 |
| 20260503213217 | 66 | 177 | 6.0 | 14.0 | 0.00 | 0.00 | 0.00 | 42 | 1012.8 |
| 20260503212216 | 66 | 201 | 5.0 | 14.0 | 0.00 | 0.00 | 0.00 | 42 | 1012.9 |
| 20260503211211 | 66 | 180 | 4.0 | 11.0 | 0.00 | 0.00 | 0.00 | 42 | 1012.9 |
| 20260503210212 | 66 | 171 | 6.0 | 10.0 | 0.00 | 0.00 | 0.00 | 42 | 1013.0 |
| 20260503205215 | 66 | 184 | 5.0 | 15.0 | 0.00 | 0.00 | 0.00 | 42 | 1013.0 |
| 20260503204209 | 65 | 188 | 4.0 | 8.0 | 0.00 | 0.00 | 0.00 | 42 | 1012.9 |
| 20260503203215 | 66 | 184 | 4.0 | 10.0 | 0.00 | 0.00 | 0.00 | 42 | 1013.0 |
| 20260503202216 | 65 | 172 | 4.0 | 8.0 | 0.00 | 0.00 | 0.00 | 42 | 1013.0 |
| 20260503201209 | 65 | 206 | 4.0 | 9.0 | 0.00 | 0.00 | 0.00 | 42 | 1013.1 |
| 20260503200212 | 65 | 182 | 5.0 | 13.0 | 0.00 | 0.00 | 0.00 | 42 | 1013.3 |
| 20260503195214 | 65 | 185 | 3.0 | 8.0 | 0.00 | 0.00 | 0.00 | 41 | 1013.3 |
| 20260503194207 | 65 | 180 | 4.0 | 9.0 | 0.00 | 0.00 | 0.00 | 41 | 1013.2 |
| 20260503193210 | 65 | 190 | 3.0 | 7.0 | 0.00 | 0.00 | 0.00 | 41 | 1013.4 |
| 20260503192214 | 65 | 174 | 4.0 | 9.0 | 0.00 | 0.00 | 0.00 | 41 | 1013.4 |
| 20260503191207 | 64 | 177 | 4.0 | 9.0 | 0.00 | 0.00 | 0.00 | 41 | 1013.4 |
| 20260503190210 | 64 | 168 | 1.0 | 6.0 | 0.00 | 0.00 | 0.00 | 40 | 1013.4 |
| 20260503185213 | 65 | 167 | 1.0 | 2.0 | 0.00 | 0.00 | 0.00 | 38 | 1013.3 |
| 20260503184206 | 66 | 171 | 1.0 | 3.0 | 0.00 | 0.00 | 0.00 | 38 | 1013.3 |
| 20260503182212 | 68 | 168 | 2.0 | 3.0 | 0.00 | 0.00 | 0.00 | 36 | 1013.0 |
| 20260503180210 | 70 | 205 | 0.0 | 2.0 | 0.00 | 0.00 | 0.00 | 33 | 1013.0 |
| 20260503175213 | 71 | 157 | 1.0 | 2.0 | 0.00 | 0.00 | 0.00 | 32 | 1013.1 |